QUIKSCAT

导读

QUIKSCAT是美国1999年6月20日发射的卫星,是NASA地球观测系统的重要成员,核心搭载SeaWinds散射计,用于全天候监测全球海洋海面风场,同时可获取海冰分布、陆地植被等信息,为海洋学研究、气候预测、气象预报提供关键观测数据,在海洋灾害预警等领域发挥了重要作用。

Basic Information
目录编号:
25789
目录名称:
QUIKSCAT
国际标识:
1999-034A
轨道中心:
EARTH
卫星名称:
QUIKSCAT
卫星全名:
--
卫星状态:
在轨 (已飞行9886 天)
发射日期:
1999-06-20 UTC
国别 :
美国 (US)
星等 :
--
Orbit Information
数据来源 国际轨道数据 AOE轨道数据
星历时间 2026-07-14T12:12:50+0800
4小时前
查看轨道信息
2026-07-09T01:00:00+0800
5天前
查看轨道信息
半长轴 7098.099km 7098.104km
偏心率 0.0094632 0.0094163
轨道倾角 98.266° 98.268°
近地点辐角 198.733° 215.637°
升交点赤经 75.328° 69.948°
平近点角 161.037° 27.601°
近地点 652.791km 653.129km
远地点 787.133km 786.805km
周期 99.191分钟 99.191分钟
每日圈数 14.51743 14.517415
Detailed Information
使用方式:
暂无
2D Orbit Map
3D Orbit Map
Orbit Altitude Analysis Chart
Orbit Inclination Analysis Chart
Orbit Comprehensive Analysis Chart
View Comprehensive Chart